Date,TemperatureHighF,TemperatureAvgF,TemperatureLowF,DewpointHighF,DewpointAvgF,DewpointLowF,HumidityHigh,HumidityAvg,HumidityLow,PressureMaxIn,PressureMinIn,WindSpeedMaxMPH,WindSpeedAvgMPH,GustSpeedMaxMPH,PrecipitationSumIn
2013-1-16,75,73,72,68,64,62,87,75,64,29.92,29.89,2,0,3,0.00
2013-1-17,89,73,70,73,70,62,98,92,42,29.92,29.77,8,2,13,0.00
2013-1-18,118,80,70,76,67,42,98,76,9,29.71,29.39,11,2,27,0.17
2013-1-19,74,74,73,66,66,65,77,76,74,29.77,29.74,10,9,22,0.00
2013-1-20,68,68,68,67,67,67,98,98,97,30.01,30.01,4,3,6,0.00
2013-1-24,72,71,71,71,71,70,98,98,97,29.92,29.89,1,0,2,0.00
2013-1-25,89,73,68,79,70,65,98,92,51,29.89,29.74,10,2,19,0.00
2013-1-26,89,78,72,76,70,62,98,79,41,29.89,29.80,11,3,17,0.00
2013-1-27,76,73,70,73,71,69,98,94,86,29.77,29.71,6,2,8,1.62
2013-1-28,72,70,68,71,70,67,98,98,98,29.74,29.56,13,4,30,4.23
2013-1-29,93,72,69,73,70,61,98,94,43,29.71,29.42,11,4,22,0.29
2013-1-30,81,76,69,71,66,62,98,73,59,29.95,29.86,6,4,12,0.09
2013-1-31,95,85,77,71,66,62,83,53,37,29.86,29.62,0,0,0,0.00
2013-2-1,92,76,66,74,68,61,98,78,38,29.71,29.59,10,0,18,0.87
2013-2-2,70,64,61,66,62,52,98,94,61,29.95,29.62,10,6,24,0.71
2013-2-3,77,64,61,60,52,47,74,66,43,30.07,29.89,12,4,24,0.00
2013-2-4,83,75,67,65,57,47,91,56,31,30.24,30.12,9,6,17,0.00
2013-2-5,85,79,67,68,59,53,94,52,37,30.27,30.15,9,5,15,0.00
2013-2-6,86,80,71,73,58,50,98,49,33,30.18,30.07,8,5,15,0.00
2013-2-7,90,82,71,69,57,52,93,44,30,30.12,29.98,9,5,19,0.00
2013-2-8,83,68,61,69,62,59,98,83,47,30.09,30.01,5,1,8,0.00
2013-2-9,95,72,64,72,66,55,98,82,28,30.07,29.86,8,2,17,0.00
2013-2-10,93,75,70,75,70,60,98,87,38,30.07,29.86,11,2,24,0.00
2013-2-11,72,70,68,69,68,67,98,93,88,30.09,29.98,7,5,15,0.21
2013-2-12,82,74,69,72,67,60,98,80,60,30.18,30.01,9,5,16,0.46
2013-2-13,84,73,65,69,62,52,98,73,35,30.24,30.12,7,2,14,0.04
2013-2-14,86,79,63,70,60,52,98,58,34,30.21,30.09,8,4,13,0.00
2013-2-15,86,71,65,71,65,57,98,84,41,30.21,30.09,6,2,10,0.24
2013-2-16,82,66,62,76,64,61,98,95,50,30.18,30.12,7,1,10,0.00
2013-2-17,84,70,62,74,64,56,98,83,42,30.18,30.09,8,2,15,0.12
2013-2-18,88,80,68,75,63,54,98,58,38,30.12,30.03,8,4,17,0.00
2013-2-19,89,74,64,76,66,62,98,80,44,30.01,29.95,7,2,11,0.00
2013-2-20,87,82,70,77,69,65,98,68,51,30.01,29.95,11,6,18,0.33
2013-2-21,85,73,67,74,69,66,98,89,55,30.07,29.95,9,3,18,0.13
2013-2-22,81,74,66,73,66,60,98,77,56,30.07,29.98,12,7,25,0.54
2013-2-23,75,70,68,75,70,67,98,98,98,29.98,29.62,13,9,28,2.95
2013-2-24,94,74,69,80,72,68,98,94,48,29.95,29.68,10,2,18,0.00
2013-2-25,90,85,75,77,71,68,97,65,50,30.01,29.89,9,5,14,0.00
2013-2-26,86,80,72,73,68,62,98,68,49,30.03,29.92,8,5,13,0.00
2013-2-27,91,82,71,68,61,54,88,52,31,30.01,29.83,8,5,16,0.00
2013-2-28,94,85,66,73,63,58,98,52,32,29.86,29.71,11,5,20,0.87
2013-3-1,67,66,65,66,65,64,98,98,98,29.95,29.83,13,9,22,3.93
2013-3-3,69,67,66,68,66,65,98,97,96,30.07,30.07,9,8,17,0.00
2013-3-4,84,78,70,65,57,52,81,49,36,30.18,30.09,10,6,18,0.00
2013-3-5,84,79,69,66,57,51,82,48,34,30.18,30.09,10,6,19,0.00
2013-3-6,87,81,70,73,58,50,94,47,31,30.15,30.07,8,4,14,0.00
2013-3-7,87,81,66,73,60,54,98,52,36,30.15,30.03,8,5,14,0.00
2013-3-8,86,81,64,74,60,53,98,52,34,30.21,30.09,9,4,13,0.00
2013-3-9,84,71,68,71,66,51,95,86,35,30.18,30.09,9,1,13,0.00
2013-3-10,87,69,63,75,63,54,98,86,35,30.12,30.03,8,1,15,0.00
2013-3-11,87,73,64,79,64,56,98,79,37,30.15,30.03,7,2,14,0.00
2013-3-12,86,74,64,76,64,53,98,77,36,30.15,30.07,7,1,10,0.00
2013-3-13,90,81,64,74,62,54,98,55,30,30.01,29.86,8,4,15,0.00
2013-3-14,87,79,68,72,62,51,98,59,31,29.95,29.86,7,4,14,0.00
2013-3-15,72,70,70,71,70,69,98,98,96,30.01,29.89,6,4,13,0.17
2013-3-16,94,76,66,72,68,63,98,81,40,29.98,29.71,8,2,13,0.04
2013-3-17,76,71,66,71,65,43,98,84,34,30.12,29.68,12,4,26,0.00
2013-3-18,77,71,62,56,51,47,80,49,36,30.24,30.15,8,5,15,0.05
2013-3-19,80,73,60,71,58,49,98,61,36,30.30,30.21,8,3,14,0.00
2013-3-20,86,77,61,73,60,53,98,59,38,30.33,30.18,7,4,13,0.00
2013-3-21,90,80,63,68,56,49,98,47,26,30.18,29.98,7,4,13,0.00
2013-3-22,93,85,76,62,60,56,60,43,32,30.01,29.89,14,10,23,0.00
2013-3-23,96,78,73,70,58,54,89,51,28,30.07,29.92,12,4,16,0.00
2013-3-24,98,72,68,76,68,56,98,91,29,30.03,29.86,5,0,10,0.00
2013-3-25,87,80,65,75,65,57,98,64,47,30.12,30.01,8,4,15,0.00
2013-3-26,92,82,71,77,70,63,98,71,42,30.09,29.95,8,3,13,0.00
2013-3-27,97,85,68,78,67,60,98,57,31,30.09,29.98,8,4,12,0.00
2013-3-28,96,76,66,71,66,55,98,76,29,30.07,29.95,8,3,13,0.00
2013-4-1,64,63,62,64,62,61,98,98,98,30.03,30.03,0,0,1,0.00
2013-4-2,86,69,59,71,58,46,98,76,29,30.07,29.98,6,1,9,0.00
2013-4-3,68,64,62,67,64,61,98,98,98,30.18,30.03,7,1,11,2.54
2013-4-4,74,64,60,69,62,57,98,93,63,30.45,30.27,8,2,17,1.29
2013-4-5,80,69,60,69,59,48,98,76,35,30.45,30.36,7,2,13,0.00
2013-4-6,76,63,60,69,61,57,98,94,56,30.42,30.27,8,1,15,0.00
2013-4-7,80,61,56,71,58,52,98,93,44,30.30,30.18,7,0,13,0.00
2013-4-8,82,76,62,70,60,52,98,61,40,30.33,30.21,7,3,12,0.00
2013-4-9,81,72,60,70,62,59,98,75,53,30.36,30.24,7,2,12,0.04
2013-4-10,81,75,60,72,61,55,98,65,44,30.30,30.18,7,3,11,0.00
2013-4-11,86,64,54,70,58,53,98,85,36,30.27,30.18,4,1,6,0.00
2013-4-12,83,78,63,72,60,53,98,56,39,30.33,30.21,7,4,12,0.00
2013-4-13,80,62,56,70,60,56,98,93,50,30.24,30.01,6,1,13,0.00
2013-4-14,85,65,57,74,60,54,98,89,40,30.03,29.86,5,0,8,0.00
2013-4-15,93,64,58,69,60,54,98,91,29,29.92,29.74,6,0,12,0.00
2013-4-16,76,67,63,70,64,57,98,90,55,30.01,29.86,6,3,13,0.12
2013-4-17,79,63,58,66,61,54,98,93,44,30.07,29.95,7,2,15,0.21
2013-4-18,80,64,58,71,61,55,98,92,45,30.03,29.89,6,1,10,0.00
2013-4-19,71,62,58,62,53,36,98,78,32,30.01,29.89,8,3,17,0.00
2013-4-20,63,59,57,63,51,36,98,78,41,30.07,29.86,8,4,17,1.45
2013-4-21,76,59,55,57,54,43,98,87,33,30.07,29.92,6,3,12,0.00
2013-4-22,83,60,56,64,57,46,98,93,29,29.98,29.77,5,1,10,0.00
2013-4-23,83,57,49,66,52,38,98,90,23,30.07,29.89,6,0,10,0.00
2013-4-24,57,54,52,56,54,52,98,98,98,30.07,30.03,0,0,2,0.00
2013-4-25,80,65,52,64,52,43,98,68,30,30.24,30.15,4,1,7,0.00
2013-4-26,84,56,48,63,51,45,98,87,28,30.30,30.12,4,1,8,0.00
2013-4-27,81,60,50,68,54,47,98,84,32,30.24,30.09,5,1,8,0.00
2013-4-28,86,65,56,61,52,42,96,68,23,30.18,30.07,8,2,10,0.00
2013-4-29,85,61,53,66,53,43,98,77,26,30.27,30.12,7,1,16,0.00
2013-4-30,79,69,64,72,66,62,98,92,63,30.30,30.21,7,2,13,0.00
2013-5-1,90,80,64,70,60,53,98,55,31,30.12,29.92,7,4,14,0.00
2013-5-2,72,67,58,66,48,41,94,51,34,30.36,30.07,8,6,16,0.00
2013-5-3,77,65,57,57,51,43,98,69,31,30.39,30.18,6,3,10,0.00
2013-5-4,84,62,53,57,48,37,98,64,20,30.30,30.03,11,4,24,0.00
2013-5-5,73,63,57,49,44,41,76,52,35,30.33,30.21,7,4,15,0.00
2013-5-6,71,65,58,59,51,46,98,61,46,30.36,30.30,7,4,17,0.09
2013-5-7,76,65,55,64,56,49,98,77,41,30.45,30.33,6,2,10,0.00
2013-5-8,77,69,56,69,61,50,98,78,43,30.51,30.42,5,2,9,0.00
2013-5-9,83,74,56,68,56,51,98,57,40,30.51,30.39,4,2,7,0.00
2013-5-10,62,58,56,60,57,56,98,97,90,30.48,30.45,0,0,2,0.00
2013-5-11,73,63,57,72,61,56,98,94,73,30.48,30.36,5,1,10,0.04
2013-5-12,62,55,52,61,54,51,98,98,98,30.42,30.24,1,0,3,0.00
2013-5-13,68,63,32,63,58,53,98,83,58,30.01,0.00,2,0,4,0.00
2013-5-14,73,62,58,63,60,52,98,94,51,29.98,29.89,6,2,9,0.08
2013-5-15,62,60,59,45,44,43,58,56,51,29.95,29.92,6,4,8,0.00
2013-5-16,71,62,59,47,44,43,60,53,39,29.95,29.89,13,8,20,0.00
2013-5-17,70,59,54,52,46,38,91,65,32,29.98,29.89,8,6,13,0.00
2013-5-18,74,53,46,48,42,33,97,70,23,30.07,29.92,6,2,10,0.00
2013-5-19,68,51,43,55,42,34,98,75,29,30.15,30.03,7,2,11,0.00
2013-5-20,72,53,42,50,41,32,98,70,24,30.18,30.03,6,2,12,0.00
2013-5-21,78,66,49,48,42,35,87,44,23,30.09,29.95,8,5,12,0.00
2013-5-22,59,51,49,56,50,48,98,98,85,30.07,29.98,2,0,4,0.00
2013-5-23,64,56,53,61,55,51,98,98,63,30.03,29.86,10,4,15,1.37
2013-5-24,72,67,32,60,49,45,98,55,41,30.18,0.00,12,8,27,0.79
2013-5-25,71,59,52,59,55,50,98,89,49,30.30,30.15,6,3,10,0.12
2013-5-26,49,48,48,49,48,47,98,98,98,30.33,30.27,0,0,0,0.00
2013-5-27,58,48,44,57,48,44,98,98,98,30.48,30.30,3,0,6,0.09
2013-5-28,69,57,54,62,56,53,98,97,65,30.54,30.45,5,0,10,0.21
2013-5-30,70,60,32,60,56,54,98,85,59,30.42,0.00,3,1,6,0.00
2013-5-31,79,71,49,69,54,48,98,59,39,30.42,30.27,6,2,8,0.00
2013-6-1,70,58,55,62,56,53,98,94,54,30.30,30.01,6,1,12,0.00
2013-6-2,62,59,54,60,58,48,98,96,73,30.07,29.71,9,4,25,0.78
2013-6-3,69,58,54,54,42,37,98,59,35,30.21,30.03,7,5,17,0.00
2013-6-4,71,53,44,55,48,44,98,85,39,30.36,30.21,4,1,8,0.00
2013-6-5,75,64,49,63,54,48,98,74,43,30.39,30.24,6,2,9,0.00
2013-6-6,67,58,53,57,53,47,98,85,50,30.30,30.24,9,2,13,0.00
2013-6-7,76,68,58,62,60,54,93,77,52,30.30,30.09,10,7,21,0.00
2013-6-8,68,60,52,64,56,45,98,91,47,30.51,30.30,6,2,15,0.00
2013-6-9,68,53,47,64,52,47,98,96,64,30.45,30.27,3,0,6,0.00
2013-6-10,71,55,48,64,53,47,98,93,58,30.27,30.12,6,1,10,0.00
2013-6-11,77,70,50,66,53,47,98,61,37,30.21,30.09,4,2,6,0.00
2013-6-12,60,58,32,60,58,51,98,96,98,29.89,0.00,7,4,10,0.24
2013-6-13,70,58,50,60,54,47,98,87,46,29.86,29.74,12,5,15,0.00
2013-6-14,68,63,56,55,48,43,92,59,42,29.80,29.71,13,9,22,0.00
2013-6-15,66,58,55,53,48,38,92,72,37,29.98,29.77,9,5,13,0.00
2013-6-16,68,56,47,48,40,36,98,55,34,30.03,29.92,6,3,14,0.00
2013-6-17,61,57,47,51,48,44,98,72,53,29.92,29.83,4,2,7,0.00
2013-6-18,69,54,42,58,44,37,98,76,33,30.07,29.92,6,2,11,0.00
2013-6-19,65,58,50,55,49,42,98,73,47,30.27,30.07,8,5,15,0.38
2013-6-20,69,58,53,55,49,42,98,73,43,30.33,30.18,8,3,11,0.00
2013-6-21,66,56,48,56,49,42,98,80,47,30.24,30.15,5,2,9,0.00
2013-6-22,67,50,45,55,48,43,98,94,46,30.33,30.21,6,2,15,0.00
2013-6-23,65,56,54,59,55,53,98,96,75,30.42,30.33,6,2,11,1.03
2013-6-24,54,53,49,53,52,49,98,98,95,30.30,30.03,4,2,8,0.05
2013-6-25,66,52,44,54,49,43,98,89,46,30.09,30.01,6,2,8,0.00
2013-6-26,68,55,44,62,53,44,98,94,63,30.15,30.03,11,3,23,0.08
2013-6-27,62,59,57,61,58,56,98,97,86,30.24,30.15,6,2,13,0.75
2013-6-28,57,56,32,57,56,55,98,96,98,30.27,0.00,2,0,3,0.21
2013-6-29,64,58,56,63,57,55,98,97,84,30.30,30.21,7,2,12,0.21
2013-6-30,56,54,32,55,55,54,98,94,98,30.27,0.00,3,2,7,0.95
2013-7-1,66,56,52,64,55,51,98,97,81,30.27,30.18,6,2,9,0.17
2013-7-2,68,54,50,58,51,45,98,90,48,30.33,30.21,5,2,10,0.00
2013-7-3,71,49,42,60,46,42,98,94,38,30.33,30.21,4,0,8,0.00
2013-7-4,73,55,49,54,49,44,98,85,37,30.18,29.95,16,4,27,0.00
2013-7-5,74,60,51,57,48,27,98,72,23,30.09,29.86,12,5,17,0.00
2013-7-6,66,51,43,40,31,27,67,46,27,30.27,30.09,8,4,12,0.00
2013-7-7,71,45,38,53,38,30,98,81,24,30.45,30.27,4,1,6,0.00
2013-7-19,60,59,59,60,58,58,98,98,98,29.95,29.95,4,0,6,0.04
2013-7-20,72,59,55,61,57,39,98,95,32,29.95,29.74,10,3,21,0.00
2013-7-21,64,52,42,47,35,26,97,54,25,30.12,29.98,13,4,19,0.00
2013-7-22,61,54,32,34,31,29,56,40,29,30.18,30.09,6,3,12,0.00
2013-7-23,70,60,42,41,35,30,81,41,25,30.24,30.09,7,5,12,0.00
2013-7-24,66,60,53,44,41,38,57,49,40,30.42,30.33,10,6,26,0.00
2013-7-25,62,51,32,48,44,38,98,74,41,30.42,0.00,2,1,3,0.00
2013-7-26,61,47,45,49,45,40,98,95,46,30.42,30.33,2,0,3,0.00
2013-7-27,68,47,41,59,45,41,98,94,49,30.54,30.39,4,0,6,0.00
2013-7-28,68,51,44,60,48,43,98,92,55,30.51,30.33,4,1,6,0.00
2013-7-29,77,61,47,64,49,42,98,73,31,30.39,30.21,7,2,11,0.00
2013-7-30,72,63,32,58,50,41,96,65,33,30.18,0.00,7,2,18,0.00
2013-7-31,70,63,56,61,51,43,98,66,43,30.30,30.24,9,5,20,0.41
2013-8-1,72,65,50,54,45,40,98,50,34,30.30,30.15,6,4,10,0.00
2013-8-2,70,56,32,48,40,31,77,55,26,30.03,29.98,5,1,10,0.00
2013-8-3,72,55,48,48,37,29,88,53,22,30.09,29.95,8,4,13,0.00
2013-8-4,69,56,49,38,35,27,62,47,22,30.09,29.92,11,7,16,0.00
2013-8-5,68,55,45,40,35,31,74,50,28,30.15,30.03,9,5,15,0.00
2013-8-6,74,62,45,39,35,31,78,41,21,30.09,29.86,14,7,23,0.00
2013-8-7,71,60,54,54,44,36,80,57,34,29.98,29.89,7,2,11,0.00
2013-8-8,62,55,32,52,41,33,98,60,35,30.03,0.00,9,6,18,0.17
2013-8-9,73,58,46,42,38,31,82,51,24,30.15,30.03,5,3,10,0.00
2013-8-10,81,61,53,47,37,33,77,42,19,30.09,29.98,9,6,13,0.00
2013-8-11,81,70,57,47,38,29,68,34,17,30.12,0.00,5,2,10,0.00
2013-8-12,67,55,32,49,46,34,85,73,33,29.98,0.00,16,2,26,0.00
2013-8-13,64,54,48,35,30,23,53,41,28,30.07,29.92,10,5,17,0.00
2013-8-14,73,68,62,31,29,26,28,23,19,30.01,29.83,9,6,15,0.00
2013-8-15,69,61,47,40,27,17,76,29,15,30.24,29.86,9,6,17,0.00
2013-8-16,67,61,32,49,48,39,70,60,44,30.09,30.03,7,5,14,0.00
2013-8-17,76,58,51,51,47,28,86,70,25,30.03,29.80,16,4,29,0.00
2013-8-18,74,54,43,41,35,31,75,53,22,30.12,29.95,10,2,13,3.98
2013-8-19,76,66,57,32,28,23,35,24,15,29.98,29.74,13,8,22,0.00
2013-8-20,69,56,47,29,23,13,46,30,15,30.07,29.92,10,6,18,0.00
2013-8-21,56,48,32,40,36,24,81,60,43,30.07,29.98,2,0,4,0.00
2013-8-22,69,59,46,36,31,27,61,37,22,30.07,29.89,12,7,19,0.00
2013-8-23,71,60,54,37,34,29,50,37,23,30.01,29.86,14,8,27,0.00
2013-8-24,76,63,53,48,40,32,82,46,22,30.27,30.01,8,5,14,0.00
2013-8-25,79,54,45,58,46,30,98,82,17,30.36,30.15,9,1,13,0.00
2013-8-26,66,58,52,49,46,43,86,68,43,30.24,30.15,5,1,10,0.00
2013-8-27,83,62,48,62,46,34,98,66,19,30.27,30.09,7,2,10,0.00
2013-8-28,79,61,47,61,45,32,98,66,21,30.30,30.15,8,2,17,0.00
2013-8-29,79,63,49,66,50,40,98,69,28,30.30,30.12,8,2,17,0.00
2013-8-30,84,70,59,56,48,36,81,52,20,30.15,29.92,11,5,19,0.00
2013-8-31,85,58,51,55,44,23,85,64,13,30.30,30.03,6,1,12,0.00
2013-9-1,79,63,49,64,49,42,98,68,28,30.45,30.33,6,2,11,0.00
2013-9-2,82,63,49,64,49,37,98,69,22,30.54,30.42,6,2,11,0.00
2013-9-3,62,52,49,61,51,49,98,97,91,30.60,30.51,0,0,2,0.00
2013-9-4,82,73,60,65,47,37,98,42,22,30.60,30.42,8,4,15,0.00
2013-9-5,88,63,32,63,48,31,98,68,15,30.45,30.27,8,2,11,0.00
2013-9-6,83,68,57,65,46,37,95,48,21,30.36,30.24,7,2,12,0.00
2013-9-7,90,67,58,68,52,28,98,69,13,30.30,30.09,10,2,20,0.00
2013-9-8,74,67,32,66,59,52,97,76,50,30.33,0.00,6,3,14,0.00
2013-9-9,82,68,64,68,63,49,98,87,34,30.30,29.92,6,2,10,0.00
2013-9-10,87,81,68,42,34,28,37,19,13,29.83,0.00,18,14,29,0.00
2013-9-11,82,65,51,50,34,20,81,37,12,29.98,29.74,8,3,13,0.00
2013-9-12,81,61,49,54,37,24,82,45,14,30.07,29.86,12,2,26,0.00
2013-9-13,70,63,60,44,40,36,53,43,34,30.15,0.00,7,4,13,0.00
2013-9-14,83,63,58,63,55,40,98,79,23,30.07,29.80,12,4,25,0.33
2013-9-15,73,62,56,60,55,44,98,81,40,30.15,30.01,9,3,17,0.00
2013-9-16,67,65,32,64,57,51,98,77,58,30.07,29.74,8,4,17,0.25
2013-9-17,74,64,60,63,57,44,98,81,38,29.68,29.56,13,8,29,0.21
2013-9-18,80,65,60,58,52,31,92,68,20,29.71,29.59,12,8,22,0.00
2013-9-19,76,66,32,39,30,24,38,24,15,29.83,0.00,11,4,13,0.00
2013-9-20,79,64,50,38,32,19,55,31,13,29.95,29.71,12,6,20,0.00
2013-9-21,75,57,46,54,40,31,98,58,22,30.03,29.95,8,2,15,0.00
2013-9-22,84,58,48,62,49,35,98,80,19,30.03,29.92,7,1,13,0.00
2013-9-23,90,63,53,63,51,24,98,75,10,30.01,29.71,9,2,15,0.00
2013-9-24,93,67,60,61,40,26,95,43,11,29.83,29.56,6,2,13,0.00
2013-9-25,94,82,32,47,38,25,33,22,9,29.89,0.00,8,5,14,0.00
2013-9-26,95,72,56,56,38,22,93,39,9,29.83,29.62,20,4,32,0.00
2013-9-27,80,59,48,44,32,20,71,39,12,30.21,30.03,7,2,15,0.00
2013-9-28,90,65,50,58,43,18,98,62,10,30.03,29.74,14,4,25,0.00
2013-9-29,80,64,52,56,36,25,77,38,15,30.09,29.92,9,2,13,0.00
2013-9-30,88,61,50,62,48,24,98,75,10,30.09,29.86,11,1,17,0.00
2013-10-1,90,69,62,67,39,31,89,34,19,29.95,29.65,16,5,30,0.04
2013-10-2,80,63,50,56,40,22,95,48,12,30.09,29.80,15,3,21,0.00
2013-10-3,74,62,53,53,37,26,84,39,19,30.18,29.77,8,4,18,0.12
2013-10-4,73,60,50,54,40,30,98,51,23,30.27,30.15,10,4,20,0.00
2013-10-5,89,63,48,63,45,24,98,65,10,30.21,29.89,9,3,15,0.00
2013-10-6,97,66,52,57,42,23,98,56,9,29.98,29.62,10,3,17,0.00
2013-10-7,75,70,32,48,43,34,45,37,32,29.92,0.00,12,8,24,0.00
2013-10-8,80,66,56,62,51,36,98,65,24,30.18,29.95,10,3,24,0.00
2013-10-9,90,68,49,60,42,22,98,56,10,30.18,29.92,8,3,13,0.00
2013-10-10,93,75,62,40,32,24,37,22,9,29.98,29.62,15,6,24,0.00
2013-10-11,83,70,62,64,52,28,93,57,14,30.07,29.62,11,6,22,0.00
2013-10-12,91,63,54,68,55,30,98,81,15,30.09,29.77,7,1,15,0.00
2013-10-13,97,90,32,58,35,25,22,14,8,29.65,0.00,23,17,40,0.00
2013-10-14,72,64,58,64,42,28,98,51,23,30.15,29.71,10,5,21,0.29
2013-10-15,83,64,46,51,32,20,97,41,11,30.30,30.09,8,3,14,0.00
2013-10-16,87,67,47,56,35,22,98,44,11,30.21,29.92,11,4,17,0.00
2013-10-17,89,87,85,42,40,38,21,19,18,29.77,29.71,20,16,32,0.00
2013-10-18,72,66,57,46,36,23,67,33,24,30.42,30.24,8,5,14,0.00
2013-10-19,78,60,48,62,48,31,98,74,20,30.45,30.24,9,2,17,0.00
2013-10-20,92,72,56,68,55,41,98,63,18,30.30,30.01,10,3,16,0.00
2013-10-21,102,78,59,70,51,25,98,57,7,30.09,29.86,8,3,15,0.00
2013-10-22,86,72,67,70,61,48,98,70,36,30.03,29.89,7,3,16,0.00
2013-10-23,97,90,70,57,41,23,59,21,8,29.86,29.59,18,9,27,0.00
2013-10-24,71,62,58,62,58,42,96,86,39,29.92,29.86,3,1,6,0.00
2013-10-25,81,64,50,48,28,18,55,28,12,30.27,30.12,8,3,15,0.00
2013-10-26,77,59,51,55,46,20,98,70,13,30.24,30.12,10,2,27,0.00
2013-10-27,82,63,55,66,54,36,98,77,22,30.27,30.15,9,2,17,0.00
2013-10-28,85,71,60,67,55,44,98,65,26,30.24,29.92,8,3,14,0.00
2013-10-29,92,69,59,66,56,42,98,69,19,30.07,29.71,13,4,30,1.58
2013-10-30,73,65,32,59,50,38,98,64,29,30.21,30.03,9,5,19,0.00
2013-10-31,78,65,51,64,50,42,98,66,30,30.24,30.09,9,3,17,0.00
2013-11-1,78,68,61,64,54,46,95,63,35,30.33,30.15,8,4,15,0.00
2013-11-2,86,62,56,68,59,45,98,92,26,30.18,30.07,8,1,13,0.00
2013-11-3,101,70,60,72,56,25,98,75,7,30.09,29.71,14,2,32,0.00
2013-11-4,68,63,32,46,36,31,44,36,29,30.39,0.00,12,8,33,0.00
2013-11-5,74,64,58,50,41,33,68,44,31,30.42,30.33,10,5,20,0.00
2013-11-6,78,64,51,63,48,40,98,64,28,30.36,30.09,9,3,15,0.00
2013-11-7,94,71,53,66,52,40,98,60,16,30.12,29.89,10,2,17,0.00
2013-11-11,68,66,65,67,65,62,98,98,82,30.03,29.98,10,4,13,2.08
2013-11-12,81,67,61,73,61,50,98,86,38,30.01,29.86,7,2,12,0.24
2013-11-13,91,72,59,75,55,37,98,67,18,30.01,29.86,9,2,17,0.00
2013-11-14,87,72,58,63,50,38,98,54,18,30.03,29.86,9,3,17,0.00
2013-11-15,75,63,61,66,61,53,98,93,48,30.01,29.95,8,1,15,0.04
2013-11-16,76,64,59,65,58,44,98,82,34,30.03,29.95,10,4,20,0.95
2013-11-17,62,60,59,62,60,58,98,98,96,30.01,29.98,9,5,20,2.74
2013-11-18,72,63,61,71,62,55,98,97,59,29.98,29.77,12,8,30,2.37
2013-11-19,79,67,60,68,60,52,98,82,43,29.89,29.80,9,4,23,0.00
2013-11-20,80,71,32,69,64,56,98,76,47,29.89,0.00,7,4,14,0.00
2013-11-21,82,73,64,75,63,56,98,75,42,29.92,29.80,13,4,24,0.00
2013-11-22,76,70,66,72,68,65,98,93,77,29.89,29.68,12,6,27,0.62
2013-11-23,80,67,61,72,66,57,98,96,56,29.74,29.56,8,2,14,0.41
2013-11-26,74,68,61,49,45,41,65,44,33,30.09,0.00,9,5,23,0.17
2013-11-27,85,68,54,62,50,40,98,62,22,30.12,29.98,7,2,12,0.00
2013-11-28,96,74,56,68,54,31,98,62,11,30.03,29.62,7,3,12,0.00
2013-11-29,77,69,62,71,64,55,98,86,49,29.98,29.50,9,4,17,0.83
2013-11-30,75,64,58,65,56,44,98,80,37,30.24,29.98,10,3,23,0.33
2013-12-1,79,62,32,68,56,46,98,85,35,30.33,0.00,8,1,15,0.00
2013-12-2,83,70,57,67,52,41,98,60,24,30.30,30.09,8,3,13,0.00
2013-12-3,84,64,55,70,57,40,98,83,23,30.12,29.92,9,2,18,0.00
2013-12-4,89,82,32,60,51,43,40,33,27,29.53,29.47,5,4,14,0.00
2013-12-5,88,76,60,78,54,25,98,54,11,29.77,29.39,16,6,31,0.04
2013-12-6,79,66,56,46,33,20,59,31,12,30.07,29.80,10,6,17,0.00
2013-12-7,82,62,53,64,52,35,98,76,22,30.21,30.09,7,2,13,0.00
2013-12-8,86,80,32,54,48,39,42,33,22,30.12,0.00,9,6,17,0.00
2013-12-9,102,80,61,66,51,33,98,47,10,29.95,29.59,9,4,14,0.00
2013-12-10,101,85,73,72,51,34,96,34,10,29.77,29.56,18,8,27,0.00
2013-12-11,87,74,68,73,64,52,98,75,33,29.86,29.68,8,4,15,0.00
2013-12-12,83,74,66,69,61,52,98,69,39,29.92,29.80,10,4,19,0.00
2013-12-13,94,74,62,73,62,53,98,72,27,29.95,29.83,10,2,17,0.00
2013-12-15,83,74,63,71,60,50,98,64,34,30.15,30.03,8,4,15,0.00
2013-12-16,81,73,64,70,60,52,98,69,40,30.21,30.09,10,4,17,0.00
2013-12-17,85,72,60,74,59,47,98,70,32,30.21,30.09,10,3,19,0.00
2013-12-18,85,74,63,74,58,48,98,63,30,30.30,30.15,8,4,14,0.00
2013-12-19,84,74,62,71,58,52,98,62,35,30.24,30.07,10,4,20,0.00
2013-12-20,112,85,63,70,54,33,98,48,7,30.09,29.83,8,3,22,0.00
2013-12-21,76,76,75,63,62,62,64,63,62,29.95,29.95,6,3,10,0.00
2013-12-22,81,80,80,57,56,55,45,44,42,29.77,29.74,5,3,8,0.00
2013-12-23,98,84,72,74,53,38,98,41,13,29.92,29.62,12,6,25,0.00
2013-12-24,72,69,66,71,67,59,98,93,65,30.15,29.89,8,5,15,0.21
2013-12-25,71,69,67,71,68,66,98,98,96,30.12,29.92,6,2,11,0.25
2013-12-26,86,74,68,72,64,54,98,77,42,29.89,29.80,10,5,23,0.09
2013-12-27,84,77,70,68,59,53,93,57,39,29.95,0.00,8,5,17,0.00
2013-12-28,86,71,64,72,64,55,98,83,40,29.95,29.68,10,2,18,0.00
2013-12-29,77,71,32,73,66,48,98,88,40,30.03,29.56,12,5,34,0.00
2013-12-30,81,68,62,63,53,41,94,62,29,30.07,29.86,8,2,16,0.00
2014-1-1,86,79,32,64,59,53,65,52,36,29.95,29.80,10,6,20,0.00
2014-1-2,105,80,72,75,62,26,98,66,8,29.74,29.56,10,3,22,0.00